Location: Catacaguana
(10.4120°N, 66.7591°W)
Time: 05:29:30
(UTC+00:00)

Cosmos 2366 rocket - Pass Details

Date: 27 May 2022
Orbit: 955 x 997 km, 82.9° (Epoch: 26 June)

Event Time Altitude Azimuth Distance (km) Brightness Sun altitude
Rises 08:27:47 0° 344° (NNW) 3,637 7.2 -22.3°
Reaches altitude 10° 08:30:23 10° 338° (NNW) 2,696 6.4 -21.8°
Maximum altitude 08:36:10 43° 268° (W) 1,329 4.3 -20.5°
Enters shadow 08:38:11 33° 226° (SW) 1,566 4.5 -20.1°
